{"data":{"norad_id":36097,"epoch":"2026-05-25T03:31:47.300736Z","epoch_age_seconds":58192,"freshness":"FRESH","line1":"1 36097U 09064A   26145.14707524 -.00000276  00000+0  00000+0 0  9996","line2":"2 36097   0.0084 300.4126 0002529 133.0593 177.2184  1.00270762 60378","mean_motion":1.00270762,"eccentricity":0.0002529,"inclination_deg":0.0084,"raan_deg":300.4126,"arg_perigee_deg":133.0593,"mean_anomaly_deg":177.2184,"bstar":0,"rev_number":6037,"period_min":1436.1115556297,"perigee_km":35776.218214424,"apogee_km":35797.545280906,"semimajor_km":42165.018747665,"source":"CELESTRAK","updated_at":"2026-05-25T13:38:14.328399Z"}}